DW9418 Weather Reports


time (UTC)temp
F
wind
direction
speed
knots
gust
knots
rain 1hr
in
rain 24hr
in
rain mn
in
humidity
%
barometer
mb
20260506123745 0 0.0 0.0 0.00 0.00 0.00
20260506122745 0 0.0 0.0 0.00 0.00 0.00
20260506121810 0 0.0 0.0 0.00 0.00 0.00
20260506120745 0 0.0 0.0 0.00 0.00 0.00
20260506115745 0 0.0 0.0 0.00 0.00 0.00
20260506114746 0 0.0 0.0 0.00 0.00 0.00
20260506113812 0 0.0 0.0 0.00 0.00 0.00
20260506112533 0 0.0 0.0 0.00 0.00 0.00
20260506112137 76 0.0 0.0 0.00 0.00 0.00 90 1008.7
20260506111747 76 90 0.9 2.6 0.00 0.00 0.00 90 1008.7
20260506110747 76 90 0.9 1.7 0.00 0.00 0.00 90 1008.6
20260506105747 76 90 0.9 2.6 0.00 0.00 0.00 90 1008.5
20260506104747 76 68 0.9 2.6 0.00 0.00 0.00 90 1008.5
20260506103747 76 0.0 1.7 0.00 0.00 0.00 90 1008.4
20260506102812 76 90 0.9 1.7 0.00 0.00 0.00 90 1008.2
20260506101747 76 90 0.9 2.6 0.00 0.00 0.00 90 1008.1
20260506100747 76 90 0.9 2.6 0.00 0.00 0.00 90 1008.0
20260506095747 76 158 0.9 4.3 0.00 0.00 0.00 90 1007.9
20260506094745 76 135 1.7 3.5 0.00 0.00 0.00 90 1007.8
20260506093747 76 113 2.6 5.2 0.00 0.00 0.00 90 1007.7
20260506092810 76 158 1.7 4.3 0.00 0.00 0.00 90 1007.6
20260506091747 76 158 1.7 7.0 0.00 0.00 0.00 90
20260506090747 76 68 0.9 3.5 0.00 0.00 0.00 90
20260506085747 76 68 1.7 7.0 0.00 0.00 0.00 90
20260506084747 76 135 1.7 6.1 0.00 0.00 0.00 90
20260506083746 76 90 1.7 5.2 0.00 0.00 0.00 89
20260506082747 76 113 1.7 6.1 0.00 0.00 0.00 89
20260506081746 76 113 1.7 7.0 0.00 0.00 0.00 89
20260506080747 76 113 1.7 5.2 0.00 0.00 0.00 89
20260506072812 76 135 1.7 5.2 0.00 0.00 0.00 89
20260506071811 76 90 1.7 7.0 0.00 0.00 0.00 89
20260506070811 76 90 0.9 5.2 0.00 0.00 0.00 89
20260506061746 76 158 1.7 6.1 0.00 0.00 0.00 89
20260506060746 76 90 0.9 3.5 0.00 0.00 0.00 89
20260506050746 77 135 1.7 7.8 0.00 0.00 0.00 87
20260506044747 78 113 2.6 6.1 0.00 0.00 0.00 87
20260506043746 78 113 2.6 4.3 0.00 0.00 0.00 86
20260506042746 78 135 2.6 6.1 0.00 0.00 0.00 86
20260506041747 78 135 1.7 7.0 0.00 0.00 0.00 86
20260506040747 78 68 1.7 6.1 0.00 0.00 0.00 85
20260506035746 78 90 1.7 9.6 0.00 0.00 0.00 85
20260506034746 78 90 2.6 7.0 0.00 0.00 0.00 85
20260506033811 79 68 1.7 6.1 0.00 0.00 0.00 84
20260506032747 79 90 1.7 6.1 0.00 0.00 0.00 84
20260506031746 79 90 1.7 6.1 0.00 0.00 0.00 83
20260506030746 79 68 1.7 4.3 0.00 0.00 0.00 83
20260506025746 79 135 1.7 6.1 0.00 0.00 0.00 82
20260506024747 80 135 2.6 6.1 0.00 0.00 0.00 82
20260506023747 80 68 1.7 6.1 0.00 0.00 0.00 81
20260506022810 80 68 2.6 8.7 0.00 0.00 0.00 80
20260506021746 81 68 2.6 7.8 0.00 0.00 0.00 78
20260506020746 81 90 1.7 4.3 0.00 0.00 0.00 78
20260506015746 82 68 1.7 6.1 0.00 0.00 0.00 77
20260506014746 82 68 1.7 4.3 0.00 0.00 0.00 76
20260506013746 82 68 0.9 3.5 0.00 0.00 0.00 75
20260506012747 83 90 0.9 5.2 0.00 0.00 0.00 75
20260506011746 83 113 0.9 2.6 0.00 0.00 0.00 74
20260506010811 83 113 0.9 2.6 0.00 0.00 0.00 73
20260506005746 84 90 0.9 2.6 0.00 0.00 0.00 72
20260506004746 84 90 0.9 5.2 0.00 0.00 0.00 72
20260506003746 84 68 0.9 2.6 0.00 0.00 0.00 72
20260506002746 85 68 0.9 5.2 0.00 0.00 0.00 71
20260506001812 85 68 0.9 2.6 0.00 0.00 0.00 71
20260506000746 85 68 0.9 4.3 0.00 0.00 0.00 70
20260505235746 85 90 1.7 6.1 0.00 0.00 0.00 70
20260505234811 85 68 0.9 3.5 0.00 0.00 0.00 70
20260505233746 85 135 0.9 2.6 0.00 0.00 0.00 70
20260505232746 86 113 2.6 8.7 0.00 0.00 0.00 68 1005.3
20260505231746 86 90 0.9 4.3 0.00 0.00 0.00 68 1005.3
20260505230746 86 158 2.6 6.1 0.00 0.00 0.00 68 1005.2
20260505225811 86 113 0.9 6.1 0.00 0.00 0.00 69 1005.1
20260505224811 86 90 2.6 6.1 0.00 0.00 0.00 68 1005.1
20260505223746 86 113 2.6 8.7 0.00 0.00 0.00 67 1005.1
20260505222811 86 135 2.6 7.8 0.00 0.00 0.00 66 1005.2
20260505221746 87 135 3.5 7.8 0.00 0.00 0.00 65 1005.2
20260505220746 87 68 2.6 8.7 0.00 0.00 0.00 66 1005.2
20260505215746 87 90 1.7 6.1 0.00 0.00 0.00 65 1005.4
20260505214746 87 90 1.7 5.2 0.00 0.00 0.00 65 1005.7
20260505213746 89 68 2.6 6.1 0.00 0.00 0.00 63 1005.9
20260505212746 88 158 1.7 3.5 0.00 0.00 0.00 64 1005.8
20260505211745 0 0.0 0.0 0.00 0.00 0.00
20260505210745 0 0.0 0.0 0.00 0.00 0.00
20260505205745 0 0.0 0.0 0.00 0.00 0.00
20260505204746 0 0.0 0.0 0.00 0.00 0.00
20260505203745 0 0.0 0.0 0.00 0.00 0.00
20260505202745 0 0.0 0.0 0.00 0.00 0.00
20260505201745 0 0.0 0.0 0.00 0.00 0.00
20260505200745 0 0.0 0.0 0.00 0.00 0.00
20260505195745 0 0.0 0.0 0.00 0.00 0.00
20260505194810 0 0.0 0.0 0.00 0.00 0.00
20260505193745 0 0.0 0.0 0.00 0.00 0.00
20260505192745 0 0.0 0.0 0.00 0.00 0.00
20260505191745 0 0.0 0.0 0.00 0.00 0.00
20260505190745 0 0.0 0.0 0.00 0.00 0.00
20260505185745 0 0.0 0.0 0.00 0.00 0.00
20260505184745 0 0.0 0.0 0.00 0.00 0.00
20260505183745 0 0.0 0.0 0.00 0.00 0.00
20260505182745 0 0.0 0.0 0.00 0.00 0.00
20260505181745 0 0.0 0.0 0.00 0.00 0.00
20260505180745 0 0.0 0.0 0.00 0.00 0.00
20260505175810 0 0.0 0.0 0.00 0.00 0.00
20260505174745 0 0.0 0.0 0.00 0.00 0.00
20260505173745 0 0.0 0.0 0.00 0.00 0.00
20260505172833 0 0.0 0.0 0.00 0.00 0.00
20260505171745 0 0.0 0.0 0.00 0.00 0.00
20260505170745 0 0.0 0.0 0.00 0.00 0.00
20260505165745 0 0.0 0.0 0.00 0.00 0.00
20260505164745 0 0.0 0.0 0.00 0.00 0.00
20260505163745 0 0.0 0.0 0.00 0.00 0.00
20260505162745 0 0.0 0.0 0.00 0.00 0.00
20260505161835 0 0.0 0.0 0.00 0.00 0.00
20260505160745 0 0.0 0.0 0.00 0.00 0.00
20260505152745 0 0.0 0.0 0.00 0.00 0.00
20260505151745 0 0.0 0.0 0.00 0.00 0.00
20260505150810 0 0.0 0.0 0.00 0.00 0.00
20260505124747 0 0.0 0.0 0.00 0.00 0.00